KKS-1 (KISEKI)

Last updated on Sun Aug 09 2026 00:03:15 GMT+0000 (Coordinated Universal Time)

1 33499U 09002H 26220.54079129 .00000632 00000+0 84113-4 0 9999 2 33499 98.1162 143.8107 0009141 115.5405 244.6754 14.83241720943951
UTC large
Height (km)
Speed (km/s)
/
Latitude / Longitude
Inclination (degrees)
Orbital Period (minutes)
Azimuth
Elevation
Range (km)
Doppler Factor

Next 0 passes for location: London (51.5072 / 0.1276)

No passes found over London.
KKS-1 (KISEKI)